Terminal Aerodrome Forecast
Issued by NWS

Home | Current Version | Previous Version | Graphics & Text | Print | Product List | Glossary On
Versions: 1 2 3 4 5 6 7 8 9 10 11 12 13 14 15 16 17 18 19 20 21 22 23 24 25 26 27 28 29 30 31 32 33 34 35 36 37 38 39
000
FTUS43 KGRB 271000 AAA
TAFRHI
TAF AMD
KRHI 271015Z 2710/2806 34008KT P6SM SCT021 BKN030
      TEMPO 2710/2712 5SM -SHSN BKN021
     FM271200 32009G14KT P6SM SCT025 BKN050
     FM271500 32010G15KT P6SM FEW030 FEW050
     FM271800 32006KT P6SM SKC
     FM280300 VRB03KT P6SM SCT100=

USA.gov is the U.S. government's official web portal to all federal, state and local government web resources and services.